2023/03/27 00:00:00, 0.0, 5.7
2023/03/27 00:10:00, 0.2, 5.9
2023/03/27 00:20:00, 0.1, 5.8
2023/03/27 00:30:00, 0.1, 5.9
2023/03/27 00:40:00, 0.0, 5.4
2023/03/27 00:50:00, 0.0, 5.3
2023/03/27 01:00:00, 0.0, 4.9
2023/03/27 01:10:00, 0.0, 4.9
2023/03/27 01:20:00, 0.0, 5.0
2023/03/27 01:30:00, 0.0, 4.9
2023/03/27 01:40:00, 0.0, 4.6
2023/03/27 01:50:00, 0.0, 4.4
2023/03/27 02:00:00, 0.0, 3.9
2023/03/27 02:10:00, 0.0, 3.6
2023/03/27 02:20:00, 0.0, 3.4
2023/03/27 02:30:00, 0.0, 4.1
2023/03/27 02:40:00, 0.0, 3.7
2023/03/27 02:50:00, 0.0, 4.0
2023/03/27 03:00:00, 0.0, 4.0
2023/03/27 03:10:00, 0.0, 4.2
2023/03/27 03:20:00, 0.0, 3.8
2023/03/27 03:30:00, 0.0, 4.2
2023/03/27 03:40:00, 0.0, 3.9
2023/03/27 03:50:00, 0.0, 4.3
2023/03/27 04:00:00, 0.0, 4.2
2023/03/27 04:10:00, 0.0, 4.0
2023/03/27 04:20:00, 0.0, 3.7
2023/03/27 04:30:00, 0.0, 3.2
2023/03/27 04:40:00, 0.0, 3.2
2023/03/27 04:50:00, 0.0, 2.8
2023/03/27 05:00:00, 0.0, 2.8
2023/03/27 05:10:00, 0.0, 2.4
2023/03/27 05:20:00, 0.2, 2.4
2023/03/27 05:30:00, 0.2, 2.4
2023/03/27 05:40:00, 0.0, 2.4
2023/03/27 05:50:00, 0.0, 2.1
2023/03/27 06:00:00, 0.0, 1.8
2023/03/27 06:10:00, 0.0, 2.0
2023/03/27 06:20:00, 0.0, 1.7
2023/03/27 06:30:00, 0.1, 1.9
2023/03/27 06:40:00, 0.1, 2.0
2023/03/27 06:50:00, 0.1, 2.1
2023/03/27 07:00:00, 0.1, 2.4
2023/03/27 07:10:00, 0.1, 2.8
2023/03/27 07:20:00, 0.1, 3.8
2023/03/27 07:30:00, 0.1, 4.4
2023/03/27 07:40:00, 0.0, 5.6
2023/03/27 07:50:00, 0.0, 6.0
2023/03/27 08:00:00, 0.1, 5.5
2023/03/27 08:10:00, 0.1, 5.4
2023/03/27 08:20:00, 0.0, 6.0
2023/03/27 08:30:00, 0.0, 6.3
2023/03/27 08:40:00, 0.0, 6.8
2023/03/27 08:50:00, 0.0, 7.2
2023/03/27 09:00:00, 0.0, 8.0
2023/03/27 09:10:00, 0.0, 8.5
2023/03/27 09:20:00, 0.0, 9.3
2023/03/27 09:30:00, 0.0,10.5
2023/03/27 09:40:00, 0.0,11.7
2023/03/27 09:50:00, 0.0,11.2
2023/03/27 10:00:00, 0.0,11.8
2023/03/27 10:10:00, 0.0,11.4
2023/03/27 10:20:00, 0.0,10.6
2023/03/27 10:30:00, 0.0,10.7
2023/03/27 10:40:00, 0.0,10.9
2023/03/27 10:50:00, 0.0,12.1
2023/03/27 11:00:00, 0.0,12.2
2023/03/27 11:10:00, 0.0,14.0
2023/03/27 11:20:00, 0.0,14.3
2023/03/27 11:30:00, 0.0,12.7
2023/03/27 11:40:00, 0.0,13.0
2023/03/27 11:50:00, 0.0,14.4
2023/03/27 12:00:00, 0.0,13.9
2023/03/27 12:10:00, 0.0,14.9
2023/03/27 12:20:00, 0.0,12.8
2023/03/27 12:30:00, 0.0,14.3
2023/03/27 12:40:00, 0.0,15.5
2023/03/27 12:50:00, 0.0,16.1
2023/03/27 13:00:00, 0.0,15.9
2023/03/27 13:10:00, 0.0,14.1
2023/03/27 13:20:00, 0.0,12.9
2023/03/27 13:30:00, 0.0,13.8
2023/03/27 13:40:00, 0.0,14.2
2023/03/27 13:50:00, 0.0,14.2
2023/03/27 14:00:00, 0.0,13.7
2023/03/27 14:10:00, 0.0,14.2
2023/03/27 14:20:00, 0.0,13.6
2023/03/27 14:30:00, 0.0,13.6
2023/03/27 14:40:00, 0.0,13.6
2023/03/27 14:50:00, 0.0,13.7
2023/03/27 15:00:00, 0.0,12.5
2023/03/27 15:10:00, 0.0,12.3
2023/03/27 15:20:00, 0.0,13.4
2023/03/27 15:30:00, 0.0,15.5
2023/03/27 15:40:00, 0.0,18.6
2023/03/27 15:50:00, 0.0,19.1
2023/03/27 16:00:00, 0.0,18.9
2023/03/27 16:10:00, 0.0,17.5
2023/03/27 16:20:00, 0.0,16.2
2023/03/27 16:30:00, 0.0,15.8
2023/03/27 16:40:00, 0.0,15.3
2023/03/27 16:50:00, 0.0,13.3
2023/03/27 17:00:00, 0.0,12.7
2023/03/27 17:10:00, 0.0,12.9
2023/03/27 17:20:00, 0.0,11.7
2023/03/27 17:30:00, 0.0,10.4
2023/03/27 17:40:00, 0.0, 9.2
2023/03/27 17:50:00, 0.0, 8.3
2023/03/27 18:00:00, 0.0, 7.7
2023/03/27 18:10:00, 0.0, 7.0
2023/03/27 18:20:00, 0.0, 6.7
2023/03/27 18:30:00, 0.0, 6.1
2023/03/27 18:40:00, 0.0, 5.6
2023/03/27 18:50:00, 0.0, 5.0
2023/03/27 19:00:00, 0.0, 4.6
2023/03/27 19:10:00, 0.0, 4.4
2023/03/27 19:20:00, 0.0, 4.1
2023/03/27 19:30:00, 0.0, 4.0
2023/03/27 19:40:00, 0.0, 3.2
2023/03/27 19:50:00, 0.0, 3.4
2023/03/27 20:00:00, 0.0, 3.3
2023/03/27 20:10:00, 0.0, 3.0
2023/03/27 20:20:00, 0.0, 2.7
2023/03/27 20:30:00, 0.0, 2.6
2023/03/27 20:40:00, 0.1, 2.4
2023/03/27 20:50:00, 0.1, 2.2
2023/03/27 21:00:00, 0.2, 2.3
2023/03/27 21:10:00, 0.2, 2.3
2023/03/27 21:20:00, 0.2, 2.3
2023/03/27 21:30:00, 0.2, 2.4
2023/03/27 21:40:00, 0.2, 2.4
2023/03/27 21:50:00, 0.1, 2.4
2023/03/27 22:00:00, 0.2, 2.2
2023/03/27 22:10:00, 0.1, 2.4
2023/03/27 22:20:00, 0.1, 2.1
2023/03/27 22:30:00, 0.1, 1.9
2023/03/27 22:40:00, 0.1, 1.9
2023/03/27 22:50:00, 0.1, 1.7
2023/03/27 23:00:00, 0.1, 1.4
2023/03/27 23:10:00, 0.0, 1.1
2023/03/27 23:20:00, 0.0, 1.2
2023/03/27 23:30:00, 0.0, 1.1
2023/03/27 23:40:00, 0.0, 0.9
2023/03/27 23:50:00, 0.0, 0.4
